Regional Weather Roundup
Issued by NWS Newport/Morehead, NC

Current Version | Previous Version | Text Only | Print | Product List | Glossary Off
Versions: 1 2 3 4 5 6 7 8 9 10 11 12 13 14 15 16 17 18 19 20 21 22 23 24 25 26 27 28 29 30 31 32 33 34 35 36 37 38 39 40 41 42 43 44 45 46 47 48 49 50

000
ASUS42 KMHX 192024
RWRMHX
WEATHER ROUNDUP FOR EASTERN NORTH CAROLINA
NATIONAL WEATHER SERVICE NEWPORT/MOREHEAD CITY NC
400 PM EDT SUN APR 19 2015

NOTE: "FAIR" INDICATES FEW OR NO CLOUDS BELOW 12,000 FEET
WITH NO SIGNIFICANT WEATHER AND/OR OBSTRUCTIONS TO VISIBILITY

NCZ015>017-031-032-045>047-102-103-192100-
NORTH COAST

CITY           SKY/WX    TMP DP  RH WIND       PRES   REMARKS
EDENTON        CLOUDY    67  62  86 E12G17    29.97F
ELIZABETH CITY CLOUDY    69  61  75 E13G22    29.99F
KITTY HAWK     CLOUDY    64  60  87 SE7       29.98F
MANTEO         CLOUDY    66  62  85 E7        29.99F

$$

NCZ045>047-081-094-103-104-192100-
CENTRAL COAST

CITY           SKY/WX    TMP DP  RH WIND       PRES   REMARKS
FRISCO         CLOUDY    72  62  71 SE14      29.97F
SWANQUARTER      N/A     73 N/A N/A SE12G18   29.91S

$$

NCZ095-097-098-100-101-192100-
SOUTHERN COAST

CITY           SKY/WX    TMP DP  RH WIND       PRES   REMARKS
BEAUFORT       LGT RAIN  70  67  90 SE12      29.95F
CEDAR ISLAND     N/A     68 N/A N/A E15G21    29.97F
JACKSONVILLE   LGT RAIN  68  66  93 SE8       29.92F FOG
PINEY ISLAND   CLOUDY   N/A N/A N/A SE14      29.95F
WILMINGTON     LGT RAIN  70  68  93 SE7       29.91F


$$

NCZ011>013-027>030-043-044-078>080-089-090>093-098-192100-
COASTAL PLAIN

CITY           SKY/WX    TMP DP  RH WIND       PRES   REMARKS
AHOSKIE        RAIN      68  58  69 E6        29.97F
CLINTON        HVY RAIN  68  68 100 E3        29.91F
ELIZABETHTOWN  LGT RAIN  70  70 100 SE6       29.89F
GOLDSBORO      LGT RAIN  68  68 100 E8        29.90F
GREENVILLE     LGT RAIN  72  64  78 E7        29.95F
HAVELOCK       LGT RAIN  71  66  84 SE13      29.95F
KENANSVILLE    RAIN      68  66  94 SE5       29.93F
KINSTON        LGT RAIN  70  50  49 SE6       29.94F
NEW BERN       CLOUDY    70  66  87 SE9       29.95F
RICHLANDS      CLOUDY    68  64  88 SE10      29.93F
ROCKY MOUNT    RAIN      65  63  93 NE5       29.93F FOG
WASHINGTON     CLOUDY    71  63  77 SE18G28   29.94F
WHITEVILLE     LGT RAIN  72  69  91 SE9       29.88F

$$

AMZ130-135-150-152-154-156-158-170-250-252-270-ANZ085-086-088-633-658-670-192100-
MARINE OBSERVATIONS

STATION/POSITION TIME  TEMP    WIND        PRES    WAVE   SWELL
                       AIR SEA DIR/SP/G            HT/PER HT/PER
                 (UTC) (F)     (DEG/KT/KT) (MB)    (FT/S) (FT/S)
CHESAPEAKE LIGHT 2000   57     110/ 22/ 23 1016.5
64 E VA BEACH    1950   65 59  100/ 12/ 14 1016.2    4/ 6   3/ 6
DUCK             2000   60 57   90/ 16/ 17 1014.5
2 E DUCK         1911      57                N/A     3/13   2/13
10 NE DUCK       NOT AVBL
OREGON INLET     2000   62 59   70/  6/  8 1015.5
HATTERAS CG      2000   72 66  120/  9/ 13 1014.3
DIAMOND BUOY     1950   74 74  130/ 19/ 21 1014.7    5/ 7   3/14
CAPE LOOKOUT     2000   69     110/ 10/ 10 1013.8
BEAUFORT LAB     2000   69 66  150/  9/ 12 1013.2
27 SE WRIGHTSVLE 2000   70 72  180/ 17/ 21   N/A
5 SE WRIGHTSVLE  2000   68 65  160/ 10/ 12 1012.8
225 S CAPE HAT   1950   73 75  120/ 14/ 17 1015.1    4/12   3/12
41 SE CHARLESTON 1950   76 75  120/ 12/ 14 1011.4    3/ 9   2/ 9

$$


USA.gov is the U.S. government's official web portal to all federal, state and local government web resources and services.